DW8463 Weather Reports


time (UTC)temp
F
wind
direction
speed
knots
gust
knots
rain 1hr
in
rain 24hr
in
rain mn
in
humidity
%
barometer
mb
20260505212305 52 0 7.0 13.0 0.00 0.00 0.00 37 1010.2
20260505211803 51 0 7.0 13.0 0.00 0.00 0.00 37 1010.2
20260505211303 50 0 3.5 10.4 0.00 0.00 0.00 37 1010.2
20260505210803 50 0 4.3 8.7 0.00 0.00 0.00 37 1010.2
20260505210304 50 0 4.3 8.7 0.00 0.00 0.00 37 1010.2
20260505205804 50 0 5.2 10.4 0.00 0.00 0.00 39 1010.2
20260505205305 50 0 6.1 15.6 0.00 0.00 0.00 39 1010.3
20260505204804 50 0 2.6 11.3 0.00 0.00 0.00 39 1010.4
20260505204304 51 0 6.1 12.2 0.00 0.00 0.00 39 1010.4
20260505203803 50 0 4.3 13.0 0.00 0.00 0.00 39 1010.2
20260505203303 51 0 5.2 10.4 0.00 0.00 0.00 39 1010.3
20260505202306 50 0 7.8 12.2 0.00 0.00 0.00 39 1010.5
20260505201304 51 0 6.1 13.9 0.00 0.00 0.00 39 1010.4
20260505200804 51 0 2.6 13.9 0.00 0.00 0.00 39 1010.4
20260505200304 51 0 7.8 17.4 0.00 0.00 0.00 39 1010.5
20260505195803 52 0 5.2 17.4 0.00 0.00 0.00 38 1010.5
20260505195305 52 0 9.6 17.4 0.00 0.00 0.00 38 1010.6
20260505194303 52 0 7.0 13.9 0.00 0.00 0.00 38 1010.6
20260505193803 52 0 5.2 11.3 0.00 0.00 0.00 38 1010.5
20260505193303 51 0 6.1 13.0 0.00 0.00 0.00 38 1010.7
20260505192803 50 0 4.3 10.4 0.00 0.00 0.00 38 1010.6
20260505192305 50 0 6.1 13.0 0.00 0.00 0.00 38 1010.6
20260505191803 49 0 7.0 12.2 0.00 0.00 0.00 38 1010.7
20260505191303 49 0 7.0 11.3 0.00 0.00 0.00 38 1010.7
20260505190804 49 0 6.1 13.0 0.00 0.00 0.00 38 1010.7
20260505190303 50 0 3.5 12.2 0.00 0.00 0.00 38 1010.6
20260505185804 49 0 7.0 20.0 0.00 0.00 0.00 42 1010.6
20260505183804 49 0 6.1 11.3 0.00 0.00 0.00 42 1010.6
20260505183304 49 0 6.1 17.4 0.00 0.00 0.00 42 1010.6
20260505182803 50 0 4.3 13.0 0.00 0.00 0.00 42 1010.5
20260505181803 50 0 6.1 12.2 0.00 0.00 0.00 42 1010.6
20260505181303 50 0 5.2 13.0 0.00 0.00 0.00 42 1010.5
20260505180804 48 0 5.2 10.4 0.00 0.00 0.00 42 1010.6
20260505180303 48 0 6.1 12.2 0.00 0.00 0.00 42 1010.6
20260505175804 48 0 7.8 13.9 0.00 0.00 0.00 39 1010.5
20260505175305 49 0 5.2 13.0 0.00 0.00 0.00 39 1010.5
20260505174803 49 0 7.8 13.0 0.00 0.00 0.00 39 1010.5
20260505174303 49 0 5.2 13.0 0.00 0.00 0.00 39 1010.4
20260505173804 49 0 4.3 14.8 0.00 0.00 0.00 39 1010.4
20260505172803 49 0 4.3 12.2 0.00 0.00 0.00 39 1010.4
20260505172305 49 0 5.2 10.4 0.00 0.00 0.00 39 1010.6
20260505171804 48 0 6.1 17.4 0.00 0.00 0.00 39 1010.5
20260505171304 48 0 5.2 10.4 0.00 0.00 0.00 39 1010.5
20260505170803 49 0 6.1 11.3 0.00 0.00 0.00 39 1010.6
20260505170304 49 0 6.1 12.2 0.00 0.00 0.00 39 1010.5
20260505165803 49 0 6.1 8.7 0.00 0.00 0.00 43 1010.6
20260505165306 49 0 2.6 13.0 0.00 0.00 0.00 43 1010.6
20260505164803 49 0 4.3 13.0 0.00 0.00 0.00 43 1010.5
20260505164303 49 0 3.5 10.4 0.00 0.00 0.00 43 1010.5
20260505163804 49 0 6.1 17.4 0.00 0.00 0.00 43 1010.5
20260505163303 47 0 2.6 8.7 0.00 0.00 0.00 43 1010.5
20260505162803 48 0 5.2 11.3 0.00 0.00 0.00 43 1010.7
20260505162306 48 0 7.0 13.0 0.00 0.00 0.00 43 1010.6
20260505161304 49 0 7.8 13.9 0.00 0.00 0.00 43 1010.7
20260505160803 49 0 7.0 15.6 0.00 0.00 0.00 43 1010.7
20260505153304 47 0 6.1 13.0 0.00 0.00 0.00 45 1010.5
20260505152803 47 0 4.3 8.7 0.00 0.00 0.00 45 1010.4
20260505152305 48 0 6.1 13.0 0.00 0.00 0.00 45 1010.4
20260505151304 47 0 4.3 11.3 0.00 0.00 0.00 45 1010.3
20260505150804 47 0 4.3 10.4 0.00 0.00 0.00 45 1010.3
20260505150303 46 0 4.3 8.7 0.00 0.00 0.00 45 1010.3
20260505140304 45 0 3.5 7.0 0.00 0.00 0.00 53 1010.1
20260505130304 41 0 1.7 4.3 0.00 0.00 0.00 63 1009.7
20260505124803 40 0 1.7 4.3 0.00 0.00 0.00 66 1009.5
20260505124303 39 0 1.7 2.6 0.00 0.00 0.00 66 1009.4
20260505123804 38 359 0.0 2.6 0.00 0.00 0.00 66 1009.4
20260505123303 38 350 0.9 1.7 0.00 0.00 0.00 66 1009.4
20260505122803 37 296 0.9 2.6 0.00 0.00 0.00 66 1009.3
20260505122305 36 0 0.0 1.7 0.00 0.00 0.00 66 1009.3
20260505121803 36 0 0.9 1.7 0.00 0.00 0.00 66 1009.2
20260505121303 35 0 0.0 0.9 0.00 0.00 0.00 66 1009.1
20260505120803 35 0 0.0 1.7 0.00 0.00 0.00 66 1009.0
20260505120304 34 0 0.0 1.7 0.00 0.00 0.00 66 1008.9
20260505115803 33 0 0.9 1.7 0.00 0.00 0.00 68 1008.8
20260505115305 32 0 0.0 1.7 0.00 0.00 0.00 68 1008.8
20260505114804 32 0 0.0 0.9 0.00 0.00 0.00 68 1008.7
20260505114303 32 0 0.0 0.9 0.00 0.00 0.00 68 1008.6
20260505113304 31 224 0.0 1.7 0.00 0.00 0.00 68 1008.3
20260505112803 32 31 0.0 0.0 0.00 0.00 0.00 68 1008.2
20260505111804 31 276 0.0 0.0 0.00 0.00 0.00 68 1007.8
20260505111304 31 276 0.0 0.0 0.00 0.00 0.00 68 1007.7
20260505110803 31 276 0.0 0.9 0.00 0.00 0.00 68 1007.6
20260505101804 33 275 0.9 2.6 0.00 0.00 0.00 74 1007.2
20260505101304 33 275 0.9 2.6 0.00 0.00 0.00 74 1007.2
20260505100803 34 275 1.7 2.6 0.00 0.00 0.00 74 1007.2
20260505100303 34 271 1.7 2.6 0.00 0.00 0.00 74 1007.1
20260505095304 33 262 1.7 2.6 0.00 0.00 0.00 74 1007.2
20260505094803 33 288 1.7 2.6 0.00 0.00 0.00 74 1007.2
20260505094303 34 288 0.0 2.6 0.00 0.00 0.00 74 1007.1
20260505093304 34 288 0.0 0.9 0.00 0.00 0.00 74 1006.9
20260505092803 34 288 0.9 1.7 0.00 0.00 0.00 74 1006.9
20260505092305 34 288 0.0 1.7 0.00 0.00 0.00 74 1006.9
20260505091804 34 288 0.9 2.6 0.00 0.00 0.00 74 1006.9
20260505090304 34 0 0.0 0.9 0.00 0.00 0.00 71 1006.7
20260505085803 34 0 0.0 1.7 0.00 0.00 0.00 58 1006.6
20260505085304 34 0 0.0 1.7 0.00 0.00 0.00 58 1006.6
20260505084803 34 0 0.0 1.7 0.00 0.00 0.00 58 1006.5
20260505084304 34 0 0.9 1.7 0.00 0.00 0.00 58 1006.3
20260505083803 35 0 0.0 1.7 0.00 0.00 0.00 58 1006.2
20260505083304 35 0 0.9 2.6 0.00 0.00 0.00 58 1006.2
20260505082304 36 0 0.9 2.6 0.00 0.00 0.00 58 1005.9
20260505081804 36 0 1.7 2.6 0.00 0.00 0.00 58 1005.9
20260505081304 36 0 1.7 2.6 0.00 0.00 0.00 58 1005.9
20260505080804 36 0 1.7 2.6 0.00 0.00 0.00 58 1005.9
20260505080303 36 0 0.9 2.6 0.00 0.00 0.00 58 1006.0
20260505075804 36 0 0.9 1.7 0.00 0.00 0.00 54 1006.0
20260505073304 37 0 0.9 2.6 0.00 0.00 0.00 54 1005.6
20260505072804 37 0 1.7 4.3 0.00 0.00 0.00 54 1005.7
20260505071804 38 0 0.9 1.7 0.00 0.00 0.00 54 1005.7
20260505071304 38 0 0.0 2.6 0.00 0.00 0.00 54 1005.7
20260505070804 38 0 0.9 2.6 0.00 0.00 0.00 54 1005.7
20260505065804 39 0 1.7 2.6 0.00 0.00 0.00 50 1005.8
20260505065304 39 0 2.6 5.2 0.00 0.00 0.00 50 1005.7
20260505064803 39 0 2.6 4.3 0.00 0.00 0.00 50 1005.7
20260505064304 38 0 1.7 2.6 0.00 0.00 0.00 50 1005.7
20260505063803 38 0 0.9 2.6 0.00 0.00 0.00 50 1005.7
20260505063303 38 0 1.7 4.3 0.00 0.00 0.00 50 1005.8
20260505062804 38 0 0.9 2.6 0.00 0.00 0.00 50 1005.8
20260505062304 38 0 0.0 0.9 0.00 0.00 0.00 50 1005.9
20260505061804 38 0 0.0 2.6 0.00 0.00 0.00 50 1005.8
20260505061304 38 0 0.0 1.7 0.00 0.00 0.00 50 1005.8
20260505060804 37 0 0.9 1.7 0.00 0.00 0.00 50 1005.8
20260505055803 38 0 0.9 1.7 0.00 0.00 0.00 55 1005.8
20260505055304 38 0 0.0 1.7 0.00 0.00 0.00 55 1005.8
20260505054304 38 0 0.0 0.9 0.00 0.00 0.00 55 1005.8
20260505053804 38 0 0.0 0.9 0.00 0.00 0.00 55 1005.7
20260505053304 38 0 0.0 0.0 0.00 0.00 0.00 55 1005.7
20260505052804 38 0 0.9 1.7 0.00 0.00 0.00 55 1005.8
20260505051804 39 0 0.0 0.0 0.00 0.00 0.00 55 1005.6
20260505050813 40 0 0.0 0.9 0.00 0.00 0.00 55 1005.5
20260505050303 40 0 0.9 2.6 0.00 0.00 0.00 55 1005.5
20260505041304 43 0 0.0 0.9 0.00 0.00 0.00 47 1005.5
20260505040803 43 0 0.9 2.6 0.00 0.00 0.00 47 1005.5
20260505040303 43 0 1.7 4.3 0.00 0.00 0.00 47 1005.5
20260505035803 43 0 1.7 4.3 0.00 0.00 0.00 45 1005.5
20260505035304 44 0 1.7 5.2 0.00 0.00 0.00 45 1005.5
20260505034803 44 0 1.7 4.3 0.00 0.00 0.00 45 1005.4
20260505034303 44 0 0.9 2.6 0.00 0.00 0.00 45 1005.5
20260505033803 44 0 2.6 4.3 0.00 0.00 0.00 45 1005.5
20260505033303 45 0 2.6 7.8 0.00 0.00 0.00 45 1005.5
20260505032804 45 0 2.6 5.2 0.00 0.00 0.00 45 1005.6
20260505032304 45 0 1.7 7.0 0.00 0.00 0.00 45 1005.5
20260505031304 46 0 3.5 10.4 0.00 0.00 0.00 45 1005.4
20260505030303 46 0 3.5 8.7 0.00 0.00 0.00 45 1005.3
20260505025803 46 0 5.2 12.2 0.00 0.00 0.00 42 1005.3
20260505025305 47 0 5.2 11.3 0.00 0.00 0.00 42 1005.3
20260505024804 47 0 5.2 10.4 0.00 0.00 0.00 42 1005.2
20260505023803 48 0 6.1 11.3 0.00 0.00 0.00 42 1004.9
20260505023304 48 0 7.8 17.4 0.00 0.00 0.00 42 1004.8
20260505022803 48 0 7.8 13.0 0.00 0.00 0.00 42 1004.6
20260505022304 49 0 7.8 17.4 0.00 0.00 0.00 42 1004.5
20260505021803 49 0 10.4 19.1 0.00 0.00 0.00 42 1004.4
20260505021303 49 0 9.6 17.4 0.00 0.00 0.00 42 1004.2
20260505020303 49 0 2.6 7.8 0.00 0.00 0.00 42 1003.9
20260505015803 49 0 5.2 13.0 0.00 0.00 0.00 41 1003.8
20260505015304 50 0 5.2 17.4 0.00 0.00 0.00 41 1003.7
20260505014803 50 0 6.1 13.0 0.00 0.00 0.00 41 1003.6
20260505014303 50 0 6.1 12.2 0.00 0.00 0.00 41 1003.5
20260505013804 50 0 5.2 10.4 0.00 0.00 0.00 41 1003.4
20260505013303 50 0 6.1 14.8 0.00 0.00 0.00 41 1003.4
20260505012803 50 0 5.2 17.4 0.00 0.00 0.00 41 1003.2
20260505012304 50 0 7.0 14.8 0.00 0.00 0.00 41 1003.2
20260505011803 51 0 6.1 13.9 0.00 0.00 0.00 41 1003.1
20260505010804 51 0 6.1 15.6 0.00 0.00 0.00 41 1002.9
20260505010304 52 0 7.8 19.1 0.00 0.00 0.00 41 1002.8
20260505005804 52 0 4.3 17.4 0.00 0.00 0.00 39 1002.6
20260505005304 52 0 8.7 15.6 0.00 0.00 0.00 39 1002.6
20260505004804 52 0 7.0 13.0 0.00 0.00 0.00 39 1002.4
20260505004304 52 0 7.8 15.6 0.00 0.00 0.00 39 1002.4
20260505003804 53 0 8.7 17.4 0.00 0.00 0.00 39 1002.4
20260505002804 53 0 8.7 14.8 0.00 0.00 0.00 39 1002.2
20260505002304 53 0 8.7 21.7 0.00 0.00 0.00 39 1002.2
20260505001803 54 0 7.0 17.4 0.00 0.00 0.00 39 1002.1
20260505001304 54 0 6.1 14.8 0.00 0.00 0.00 39 1002.0
20260505000804 54 0 9.6 20.0 0.00 0.00 0.00 39 1001.9
20260505000303 54 0 7.8 17.4 0.00 0.00 0.00 39 1001.8
20260504235804 55 0 7.8 15.6 0.00 0.00 0.00 36 1001.7
20260504235304 55 0 6.1 17.4 0.00 0.00 0.00 36 1001.7
20260504234804 55 0 10.4 18.2 0.00 0.00 0.00 36 1001.7
20260504234304 56 0 7.8 13.0 0.00 0.00 0.00 36 1001.6
20260504233804 56 0 5.2 15.6 0.00 0.00 0.00 36 1001.6
20260504233304 56 0 9.6 17.4 0.00 0.00 0.00 36 1001.4
20260504232804 56 0 12.2 20.0 0.00 0.00 0.00 36 1001.5
20260504232304 57 326 5.2 19.1 0.00 0.00 0.00 36 1001.4
20260504231304 57 314 8.7 14.8 0.00 0.00 0.00 36 1001.2
20260504230803 58 308 10.4 18.2 0.00 0.00 0.00 36 1001.1
20260504230304 58 319 11.3 18.2 0.00 0.00 0.00 36 1000.9
20260504225804 59 318 9.6 15.6 0.00 0.00 0.00 33 1000.8
20260504225304 59 355 6.1 12.2 0.00 0.00 0.00 33 1000.7
20260504224804 58 0 9.6 20.9 0.00 0.00 0.00 33 1000.7
20260504224304 58 0 11.3 21.7 0.00 0.00 0.00 33 1000.8
20260504223804 59 312 10.4 20.9 0.00 0.00 0.00 33 1000.5
20260504223304 59 296 10.4 18.2 0.00 0.00 0.00 33 1000.4
20260504222804 60 309 7.0 15.6 0.00 0.00 0.00 33 1000.4
20260504222305 60 0 10.4 19.1 0.00 0.00 0.00 33 1000.3
20260504221804 60 301 8.7 17.4 0.00 0.00 0.00 33 1000.1
20260504221304 60 0 9.6 15.6 0.00 0.00 0.00 33 1000.0
20260504220804 60 0 7.8 17.4 0.00 0.00 0.00 33 999.9
20260504220303 60 324 8.7 17.4 0.00 0.00 0.00 33 999.8
20260504215803 61 303 10.4 20.0 0.00 0.00 0.00 31 999.8
20260504215305 61 314 7.8 20.0 0.00 0.00 0.00 31 999.7
20260504214803 61 286 8.7 18.2 0.00 0.00 0.00 31 999.6
20260504213803 61 0 8.7 22.6 0.00 0.00 0.00 31 999.4
20260504212804 61 0 11.3 17.4 0.00 0.00 0.00 31 999.7